Home   Weather   Pudukkottai   Past weeks

Flag for India Past Weather in Pudukkottai, Tamil Nadu, India — Yesterday and Last 2 Weeks

Now
88 °F

Passing clouds.


Feels Like: 96 °F
Forecast: 81 / 102 °F
Wind: No wind

Location: Tiruchchirapalli

Current Time: Apr 26, 2017 at 12:05:47 am

Latest Report: Apr 25, 2017 at 11:30 pm


Visibility: 3 mi

Pressure: 29.80 "Hg

Humidity: 62%

Dew Point: 73 °F

Location of PudukkottaiLocation

Past Weather in Pudukkottai — Graph

°F

Pudukkottai Temperature Yesterday

Maximum temperature yesterday: 108 °F (at 3:30 pm)
Minimum temperature yesterday: 82 °F (at 5:30 am)
Average temperature yesterday: 94 °F

High & Low Weather Summary for the Past Weeks

 TemperatureHumidityPressure
High108 °F (Apr 17, 3:00 pm)84% (Apr 13, 4:30 am)29.83 "Hg (Apr 13, 4:30 am)
Low81 °F (Apr 13, 4:30 am)20% (Apr 15, 5:30 pm)29.59 "Hg (Apr 15, 3:00 pm)
Average92 °F54%29.73 "Hg
* Reported Apr 10 10:30 pm — Apr 25 10:30 pm, Pudukkottai, Weather by CustomWeather, © 2017

Note: Actual official high and low records may vary slightly from our data, if they occured in-between our weather recording intervals... More about our weather records

Advertising

Pudukkottai Weather History for the Previous 24 Hours

Scroll right to see more
 ConditionsComfort  
Time TempWeatherWind HumidityBarometerVisibility
10:30 pm
Tue, Apr 25
90 °FPassing clouds.2 mph52%29.80 "Hg3 mi
10:00 pm90 °FPassing clouds.No wind52%29.77 "Hg3 mi
9:30 pm91 °FPassing clouds.No wind49%29.77 "Hg3 mi
9:00 pm91 °FPassing clouds.6 mph46%29.74 "Hg3 mi
8:30 pm91 °FPassing clouds.6 mph46%29.74 "Hg3 mi
8:00 pm91 °FHaze.No wind59%N/A3 mi
6:30 pm100 °FHaze.8 mph40%29.68 "Hg3 mi
6:00 pm102 °FScattered clouds.10 mph35%29.68 "Hg4 mi
5:30 pm104 °FPassing clouds.6 mph31%29.65 "Hg4 mi
5:00 pm106 °FPassing clouds.3 mph30%29.62 "Hg5 mi
4:30 pm106 °FPassing clouds.3 mph32%29.62 "Hg5 mi
4:00 pm106 °FPassing clouds.No wind32%29.62 "Hg4 mi
3:30 pm108 °FPassing clouds.No wind30%29.65 "Hg4 mi
3:00 pm106 °FPassing clouds.No wind32%29.65 "Hg4 mi
2:30 pm106 °FPassing clouds.2 mph32%29.68 "Hg4 mi
2:00 pm104 °FPassing clouds.6 mph35%29.68 "Hg4 mi
1:30 pm104 °FHaze.9 mph35%29.71 "Hg3 mi
1:00 pm102 °FHaze.10 mph37%29.71 "Hg3 mi
12:30 pm102 °FHaze.9 mph35%29.74 "Hg3 mi
12:00 pm100 °FHaze.13 mph37%29.77 "Hg3 mi
11:00 am97 °FHaze.12 mph47%29.80 "Hg3 mi
10:30 am95 °FHaze.12 mph50%29.80 "Hg3 mi
10:00 am93 °FHaze.13 mph53%29.80 "Hg3 mi
9:00 am91 °FHaze.12 mph56%29.80 "Hg2 mi
8:30 am90 °FHaze.12 mph59%29.80 "Hg2 mi
8:00 am88 °FHaze.12 mph59%29.80 "Hg2 mi
7:00 am84 °FHaze.6 mph58%29.77 "Hg2 mi
6:30 am84 °FHaze.7 mph58%29.77 "Hg2 mi
6:00 am82 °FHaze.10 mph62%29.77 "Hg2 mi
5:30 am82 °FHaze.7 mph62%29.74 "Hg2 mi
5:00 am84 °FHaze.9 mph58%29.74 "Hg2 mi
4:00 am84 °FHaze.7 mph58%29.74 "Hg2 mi
3:30 am84 °FPassing clouds.9 mph58%29.74 "Hg2 mi
3:00 am86 °FPassing clouds.7 mph55%29.74 "Hg3 mi
2:30 am86 °FPassing clouds.5 mph55%29.74 "Hg3 mi
1:30 am86 °FPassing clouds.5 mph59%29.74 "Hg3 mi
1:00 am86 °FPassing clouds.6 mph59%29.77 "Hg3 mi
12:30 am86 °FPassing clouds.5 mph59%29.77 "Hg3 mi
12:00 am88 °FPassing clouds.5 mph55%29.80 "Hg3 mi
Weather by CustomWeather, © 2017

See weather overviewHow to use our weather pages